Regional Weather Roundup
Issued by NWS

Home | Current Version | Previous Version | Graphics & Text | Print | Product List | Glossary On
Versions: 1 2 3 4 5 6 7 8 9 10 11 12 13 14 15 16 17 18 19 20 21 22 23 24 25 26 27 28 29 30 31 32 33 34 35 36 37 38 39 40 41 42 43 44 45 46 47 48 49 50
000
ASUS43 KLMK 011702
RWRKY
KENTUCKY REGIONAL WEATHER ROUNDUP
NATIONAL WEATHER SERVICE LOUISVILLE KY
100 PM EDT WED OCT 01 2014

NOTE "FAIR" INDICATES FEW OR NO CLOUDS BELOW 12,000 FEET
WITH NO SIGNIFICANT WEATHER AND/OR OBSTRUCTIONS TO VISIBILITY.

KYZ001>023-026-027-061>063-070>075-011800-
WESTERN AND SOUTH CENTRAL KENTUCKY

CITY           SKY/WX    TMP DP  RH WIND       PRES   REMARKS
PADUCAH        MOSUNNY   85  61  44 SW8       29.94F
HENDERSON      NOT AVBL
OWENSBORO      MOSUNNY   85  56  37 SW8       29.97F
HOPKINSVILLE   MOSUNNY   85  58  38 VRB2      29.97F
BOWLING GREEN  SUNNY     84  55  36 SE8       29.99F
GLASGOW        SUNNY     82  54  38 SW5       30.00S
$$

KYZ024-025-028>034-038-045-046-053-011800-
NORTH CENTRAL KENTUCKY

CITY           SKY/WX    TMP DP  RH WIND       PRES   REMARKS
LOUISVILLE/SDF SUNNY     75  60  59 CALM      30.00F
LOUISVILLE/LOU SUNNY     75  60  59 CALM      30.01F
FORT KNOX      SUNNY     76  62  60 VRB3      29.99F
$$

KYZ035>037-039>044-047>052-055>060-089>105-011800-
NORTHEAST KENTUCKY

CITY           SKY/WX    TMP DP  RH WIND       PRES   REMARKS
LEXINGTON      SUNNY     74  61  63 CALM      30.03F
COVINGTON      MOSUNNY   68  51  54 SE3       30.03F
FRANKFORT      SUNNY     71  59  65 NE5       30.02F
$$

KYZ054-064>069-076>088-106>120-011800-
SOUTHEAST KENTUCKY

CITY           SKY/WX    TMP DP  RH WIND       PRES   REMARKS
JACKSON        SUNNY     72  60  66 VRB3      30.04F
LONDON         SUNNY     79  57  46 SW6       30.03F
SOMERSET       SUNNY     79  55  44 CALM      30.03F
MIDDLESBORO    MOSUNNY   78  57  49 S5        30.04F
MONTICELLO     SUNNY     82  57  42 S5        30.03F
$$




USA.gov is the U.S. government's official web portal to all federal, state and local government web resources and services.